Location: Byszew
(52.1813°N, 19.2693°E)
Time: 14:47:16
(UTC+00:00)

Cosmos 2360 Rocket - Pass Details

Date: 03 March 2021
Orbit: 832 x 846 km, 71.0° (Epoch: 13 April)

Event Time Altitude Azimuth Distance (km) Brightness Sun altitude
Rises 20:24:48 0° 261° (W) 3,394 5.8 -34.9°
Reaches altitude 10° 20:27:50 10° 277° (W) 2,465 5.2 -35.3°
Maximum altitude 20:32:08 22° 327° (NNW) 1,787 4.4 -35.8°
Drops below altitude 10° 20:36:27 10° 16° (NNE) 2,478 4.9 -36.2°
Sets 20:39:31 0° 32° (NNE) 3,418 5.5 -36.5°
